Weather Roundup
Issued by NWS Chicago, IL

Home | Current Version | Previous Version | Graphics & Text | Print | Product List | Glossary On
Versions: 1 2 3 4 5 6 7 8 9 10 11 12 13 14 15 16 17 18 19 20 21 22 23 24 25 26 27 28 29 30 31 32 33 34 35 36 37 38 39 40 41 42 43 44 45 46 47 48 49 50
000
NZUS59 KLOT 290608
HRRLOT

CHICAGO AREA WEATHER ROUNDUP
NATIONAL WEATHER SERVICE CHICAGO/ROMEOVILLE IL
100 AM CDT SUN MAY 29 2016

NOTE: "FAIR" INDICATES FEW OR NO CLOUDS BELOW 12,000 FEET WITH NO
SIGNIFICANT WEATHER AND/OR OBSTRUCTIONS TO VISIBILITY.

* THESE STATIONS ARE NOT UNDER NWS QUALITY CONTROL. THEY ALSO MAY NOT
  REPORT WEATHER SUCH AS PRECIPITATION OR FOG.

ILZ005-006-012>014-019>023-290700-
NORTHEAST ILLINOIS

CITY           SKY/WX    TMP DP  RH WIND       PRES   REMARKS
OHARE          MOCLDY    67  61  81 SW9       29.96S
6HR MIN TEMP:  64; 6HR MAX TEMP:  79; 6HR PCP:  0.13;

MIDWAY         CLOUDY    71  55  56 SW9       29.97S
6HR MIN TEMP:  71; 6HR MAX TEMP:  82;

AURORA         CLOUDY    66  61  84 SW9       29.97F
6HR MIN TEMP:  65; 6HR MAX TEMP:  82; 6HR PCP:  0.44;

LANSING*       CLOUDY    69  56  62 SW13      30.01R
JOLIET*        CLOUDY    66  62  86 S3        29.95F
WAUKEGAN       MOCLDY    65  62  90 SW8       29.94S
6HR MIN TEMP:  64; 6HR MAX TEMP:  80; 6HR PCP:  0.09;

DUPAGE AIRPORT LGT RAIN  65  59  81 SW9       29.97S
6HR MIN TEMP:  65; 6HR MAX TEMP:  79; 6HR PCP:  0.11;

WHEELING       CLOUDY    67  63  87 SW13      29.97S
6HR MIN TEMP:  64; 6HR MAX TEMP:  80; 6HR PCP:  0.20;

KANKAKEE*      CLOUDY    63  58  83 S8        30.01F
MORRIS*        CLOUDY    65  62  89 SW8       29.97F
LEWIS AIRPORT* CLOUDY    65  58  77 SE7       29.94F
$$

WIZ051-052-058>065-066-070>072-290700-
SOUTHEAST WISCONSIN

CITY           SKY/WX    TMP DP  RH WIND       PRES   REMARKS
MILWAUKEE      CLOUDY    65  62  90 S12       29.93F
6HR MIN TEMP:  65; 6HR MAX TEMP:  76; 6HR PCP:  0.27;

KENOSHA*       CLOUDY    65  62  90 S6        29.94S
RACINE*        LGT RAIN  63  61  93 S3        29.95F
BURLINGTON     CLOUDY    63  62  98 CALM      29.94F
WAUKESHA       CLOUDY    63  61  94 S7        29.93F
WEST BEND      MOCLDY    63  63 100 S5        29.90F
$$

INZ001>003-010>013-019-020-290700-
NORTHWEST INDIANA

CITY           SKY/WX    TMP DP  RH WIND       PRES   REMARKS
GARY*          CLOUDY    73  63  68 SW7G16    30.01R
6HR MIN TEMP:  73; 6HR MAX TEMP:  82;

MICHIGAN CITY* NOT AVBL
RENSSELAER*    NOT AVBL
VALPARAISO     CLOUDY    71  62  73 SW13      30.02R
$$

LMZ740>746-290700-
SOUTHERN LAKE MICHIGAN

STATION/POSITION TIME  SKY/WX   TEMP WIND        PRES    VSBY
                                AIR  DIR/SP/G
                 (UTC)          (F)  (DEG/KT/KT) (MB)    (MI)
HARRISON CRIB    0520            72  230/  8/  8   N/A
BURNHAM HARBOR   0600            72  210/  7/ 10   N/A
CALUMET HARBOR   0500            73  200/  9/ 11 1014.6R
BURNS HARBOR     0501            73  200/ 12/ 19 1015.6R
MICHIGAN CITY    0500            73  160/ 11/ 14   N/A
$$

ABBREVIATIONS USED IN REMARKS
   TC - TEMPERATURE IN CELSIUS
  WCI - WIND CHILL INDEX
   HX - HEAT INDEX
  VSB - VISIBILITY
$$




USA.gov is the U.S. government's official web portal to all federal, state and local government web resources and services.